User: anonymous   Login
Location: Taupo
(38.6830°S, 176.0830°E)
Time: 04:30:44
(UTC+13:00)
Language:

Resurs 01 Rocket - Orbit

View from above orbital plane
View from above orbital plane
View from above satellite
View from above satellite

Ground track
Ground track

The orbit data is extracted from the following two-line orbital elements,

1 23343U 94074B   19079.74797983  .00000012  00000-0  91907-5 0  9993
2 23343  98.0649 129.9134 0007240 162.9131 307.2257 14.76769085311518
Epoch (UTC): 20 March 2019 17:57:05
Eccentricity: 0.0007240
inclination: 98.0649°
perigee height: 634 km
apogee height: 644 km
right ascension of ascending node: 129.9134°
argument of perigee: 162.9131°
revolutions per day: 14.76769085
mean anomaly at epoch: 307.2257°
orbit number at epoch: 31151

The dashed part of the orbit path shows where the satellite is in the earth's shadow,  

DLR